[[{"header":{"parameterUnit":"m.s-1","parameterCategory":1,"la1":30.2991,"la2":30.254,"lo1":-89.0895,"lo2":-89.0444,"dy":0.0017,"dx":0.0017,"nx":28,"ny":28,"refTime":"2025-04-17T21:00:00:Z","depth":0,"parameterNumber":2,"parameterNumberName":"U-component_of_WINDS"},"data":[0,0,0,0,0,0,0,0,0,0,0,0,0,0,0,0,0,0,0,0,0,0,0,0,0,0,0,0,0,0,0,0,0,0,0,0,0,0,0,0,0,0,0,0,0,0,0,0,0,0,0,0,0,0,0,0,0,0,-2.5155,-2.5156,0,-2.517,-2.517,-2.517,-2.5151,-2.515,-2.515,-2.5149,-2.5164,-2.5165,-2.5166,0,0,0,0,0,0,0,0,0,0,0,0,0,-2.5114,-2.5115,-2.5155,-2.5156,-2.5156,-2.517,-2.517,-2.517,-2.5151,-2.515,-2.515,-2.5149,-2.5164,-2.5165,-2.5167,0,0,0,0,0,0,0,0,0,0,0,0,0,-2.5131,-2.5115,-2.5155,-2.5148,-2.5147,-2.517,-2.517,-2.517,-2.5151,-2.515,-2.5149,-2.5148,-2.5164,-2.5165,-2.5167,-2.5197,0,0,-2.5171,-2.5172,0,0,0,0,0,0,0,0,-2.513,-2.5132,-2.5149,-2.5149,-2.5148,-2.5158,-2.5161,-2.5179,-2.5152,-2.515,-2.5149,-2.5148,-2.5163,-2.5165,-2.5169,-2.5198,-2.5198,-2.5172,-2.5173,-2.5173,-2.5174,0,0,0,0,0,0,0,-2.5129,-2.5132,-2.5161,-2.5149,-2.5149,-2.5145,-2.5146,-2.5164,-2.5162,-2.515,-2.5149,-2.5151,-2.5163,-2.5168,-2.517,-2.5198,-2.5172,-2.5173,-2.5174,-2.5175,-2.5254,-2.5255,0,0,0,0,0,0,-2.5128,-2.5131,-2.5161,-2.5161,-2.5136,-2.5146,-2.5148,-2.5156,-2.5162,-2.5162,-2.5151,-2.515,-2.5166,-2.5168,-2.517,-2.5206,-2.5173,-2.5175,-2.5176,-2.5252,-2.5254,-2.5255,0,0,0,0,0,0,-2.5127,-2.5131,-2.516,-2.5146,-2.5149,-2.5148,-2.5157,-2.5156,-2.5162,-2.5163,-2.5163,-2.5157,-2.5165,-2.5168,-2.5191,-2.5206,-2.5175,-2.5177,-2.5251,-2.5253,-2.5255,-2.5278,0,0,0,0,0,0,-2.5126,-2.5131,-2.5141,-2.5146,-2.515,-2.5179,-2.5158,-2.5157,-2.5164,-2.5162,-2.5168,-2.5168,-2.5165,-2.5188,-2.5192,-2.5208,-2.5178,-2.525,-2.5252,-2.5254,-2.5276,-2.528,-2.5284,0,0,0,0,0,-2.5125,-2.5147,-2.5142,-2.5146,-2.5163,-2.518,-2.5183,-2.5178,-2.5166,-2.5177,-2.5178,-2.5168,-2.5205,-2.5191,-2.5195,-2.5211,-2.5249,-2.5251,-2.5254,-2.5274,-2.5279,-2.5284,0,0,0,0,0,0,-2.5144,-2.5148,-2.5142,-2.5166,-2.5173,-2.5177,-2.5191,-2.5184,-2.5194,-2.5191,-2.5185,-2.5187,-2.5211,-2.5214,-2.5199,-2.5242,-2.5225,-2.5228,-2.5239,-2.5244,-2.5248,-2.5246,-2.5179,0,0,0,0,0,-2.5151,-2.5164,-2.5167,-2.5189,-2.5193,-2.5191,-2.5199,-2.5194,-2.5201,-2.5204,-2.5207,-2.5214,-2.5228,-2.5236,-2.5248,-2.5277,-2.5278,-2.5291,-2.5295,-2.5298,-2.5301,-2.5317,-2.5323,-2.5264,-2.5264,-2.5264,0,0,-2.5166,-2.517,-2.5178,-2.5193,-2.5197,-2.5212,-2.5194,-2.5209,-2.522,-2.5207,-2.5228,-2.5231,-2.5239,-2.5265,-2.5276,-2.5268,-2.5318,-2.5302,-2.5305,-2.5305,-2.532,-2.5326,-2.5331,-2.5266,-2.5265,-2.5265,0,0,-2.52,-2.5204,-2.5222,-2.5228,-2.5236,-2.5235,-2.524,-2.5246,-2.5247,-2.5269,-2.5259,-2.5273,-2.5295,-2.5302,-2.5308,-2.5348,-2.5339,-2.5352,-2.5373,-2.5389,-2.5394,-2.5398,-2.5412,-2.5417,-2.5355,-2.5355,-2.5355,0,-2.5217,-2.5237,-2.5233,-2.525,-2.5257,-2.5246,-2.5266,-2.5272,-2.5283,-2.5289,-2.5279,-2.5309,-2.5313,-2.5341,-2.5351,-2.5357,-2.5362,-2.535,-2.5394,-2.5398,-2.5401,-2.5414,-2.542,-2.5357,-2.5357,-2.5356,-2.5356,0,-2.5258,-2.5273,-2.5287,-2.5299,-2.5308,-2.5326,-2.5325,-2.5335,-2.5331,-2.5332,-2.5355,-2.5361,-2.5375,-2.5382,-2.5378,-2.5409,-2.5404,-2.5394,-2.5377,-2.5408,-2.5421,-2.5426,-2.5359,-2.5358,-2.5358,-2.5357,0,0,-2.5302,-2.5312,-2.5318,-2.5323,-2.5332,-2.5344,-2.5363,-2.5376,-2.5385,-2.5395,-2.541,-2.5431,-2.5423,-2.543,-2.5427,-2.5441,-2.5473,-2.543,-2.543,-2.5437,-2.5508,-2.5514,-2.552,-2.5468,-2.5469,-2.547,-2.5507,0,-2.5335,-2.5366,-2.5364,-2.5393,-2.5407,-2.5399,-2.5416,-2.5424,-2.5426,-2.5439,-2.5442,-2.5456,-2.5444,-2.5449,-2.5463,-2.5466,-2.5486,-2.5463,-2.5482,-2.5483,-2.5478,-2.5526,-2.5532,-2.5567,-2.5512,-2.5513,-2.5513,0,-2.5377,-2.5388,-2.5419,-2.5428,-2.5434,-2.5448,-2.5461,-2.5474,-2.5483,-2.5484,-2.5494,-2.5489,-2.5509,-2.5493,-2.552,-2.5505,-2.5513,-2.5516,-2.5517,-2.5517,-2.5499,-2.5527,-2.5578,-2.5583,-2.5521,-2.552,-2.552,0,-2.5405,-2.5428,-2.545,-2.5455,-2.5465,-2.5476,-2.5481,-2.549,-2.5499,-2.5511,-2.5517,-2.5531,-2.5539,-2.5551,-2.5551,-2.5539,-2.5579,-2.5562,-2.558,-2.558,-2.5587,-2.5586,-2.5639,-2.5595,-2.5595,-2.5594,-2.5594,0,-2.5442,-2.5461,-2.5462,-2.5475,-2.5497,-2.5496,-2.5518,-2.5522,-2.553,-2.5545,-2.554,-2.5553,-2.5553,-2.5568,-2.5569,-2.5592,-2.5595,-2.5597,-2.5596,-2.5596,-2.5596,-2.56,-2.5597,-2.5596,-2.5596,-2.5595,-2.5595,0,-2.5475,-2.5477,-2.55,-2.5509,-2.5512,-2.5527,-2.5535,-2.5549,-2.5551,-2.557,-2.5574,-2.5579,-2.5596,-2.5598,-2.5618,-2.5618,-2.5646,-2.5644,-2.5642,-2.5641,-2.5659,-2.5657,-2.5715,-2.5722,-2.5674,-2.5675,-2.5675,0,-2.5497,-2.5512,-2.5523,-2.5532,-2.5538,-2.5553,-2.5562,-2.5563,-2.5573,-2.5586,-2.5598,-2.5615,-2.5628,-2.5656,-2.5661,-2.5677,-2.5674,-2.5694,-2.5676,-2.5676,-2.5674,-2.5672,-2.5674,-2.5696,-2.5697,-2.5697,-2.5698,0,-2.5537,-2.5538,-2.5551,-2.5565,-2.5577,-2.5588,-2.5599,-2.5607,-2.5609,-2.5621,-2.5638,-2.5649,-2.567,-2.5686,-2.5702,-2.5708,-2.5704,-2.5704,-2.5708,-2.5708,-2.5706,-2.5706,-2.565,-2.5702,-2.5701,-2.5701,-2.5701,-2.5701,-2.5565,-2.5578,-2.5588,-2.5604,-2.5612,-2.5623,-2.5635,-2.5641,-2.5655,-2.5672,-2.5672,-2.5691,-2.5703,-2.5723,-2.5731,-2.5747,-2.574,-2.5747,-2.5749,-2.575,-2.5752,-2.5705,-2.575,-2.575,-2.575,-2.575,-2.5749,0,-2.5604,-2.561,-2.5625,-2.564,-2.5653,-2.5648,-2.566,-2.5671,-2.5688,-2.5699,-2.5713,-2.5734,-2.5751,-2.5758,-2.5775,-2.5786,-2.5785,-2.5791,-2.5789,-2.5791,-2.5757,-2.575,-2.5792,-2.5792,-2.5792,-2.5792,-2.5792,-2.5792,-2.5625,-2.5647,-2.5649,-2.5676,-2.5682,-2.5701,-2.5709,-2.5719,-2.5728,-2.5751,-2.5765,-2.577,-2.578,-2.5798,-2.5814,-2.5816,-2.5822,-2.5829,-2.583,-2.5797,-2.5793,-2.5789,-2.5783,-2.5831,-2.5831,-2.5862,-2.5863,-2.5863]},{"header":{"parameterUnit":"m.s-1","parameterCategory":1,"la1":30.2991,"la2":30.254,"lo1":-89.0895,"lo2":-89.0444,"dy":0.0017,"dx":0.0017,"nx":28,"ny":28,"refTime":"2025-04-17T21:00:00:Z","depth":0,"parameterNumber":3,"parameterNumberName":"V-component_of_WINDS"},"data":[0,0,0,0,0,0,0,0,0,0,0,0,0,0,0,0,0,0,0,0,0,0,0,0,0,0,0,0,0,0,0,0,0,0,0,0,0,0,0,0,0,0,0,0,0,0,0,0,0,0,0,0,0,0,0,0,0,0,4.5332,4.5332,0,4.5324,4.5324,4.5324,4.5337,4.5338,4.5338,4.5339,4.5326,4.5325,4.5324,0,0,0,0,0,0,0,0,0,0,0,0,0,4.5356,4.5356,4.5332,4.5332,4.5332,4.5324,4.5324,4.5324,4.5337,4.5338,4.5338,4.5339,4.5326,4.5325,4.5324,0,0,0,0,0,0,0,0,0,0,0,0,0,4.5347,4.5356,4.5332,4.5338,4.5338,4.5324,4.5324,4.5324,4.5337,4.5338,4.5338,4.5339,4.5326,4.5325,4.5324,4.5302,0,0,4.532,4.532,0,0,0,0,0,0,0,0,4.5347,4.5346,4.5337,4.5337,4.5338,4.5332,4.5328,4.5316,4.5337,4.5337,4.5339,4.5339,4.5327,4.5326,4.5322,4.5302,4.5301,4.532,4.5319,4.5319,4.5319,0,0,0,0,0,0,0,4.5348,4.5346,4.5329,4.5337,4.5337,4.534,4.5339,4.5325,4.5328,4.5337,4.5338,4.5337,4.5327,4.5324,4.5322,4.5301,4.532,4.5319,4.5318,4.5318,4.5263,4.5263,0,0,0,0,0,0,4.5348,4.5347,4.5329,4.5328,4.5344,4.5339,4.5338,4.5333,4.5328,4.5328,4.5337,4.5338,4.5325,4.5324,4.5322,4.5297,4.5319,4.5318,4.5317,4.5264,4.5263,4.5262,0,0,0,0,0,0,4.5349,4.5347,4.5329,4.5338,4.5336,4.5338,4.5332,4.5333,4.5329,4.5328,4.5328,4.5333,4.5326,4.5324,4.5308,4.5297,4.5317,4.5316,4.5265,4.5264,4.5263,4.5247,0,0,0,0,0,0,4.5349,4.5347,4.5339,4.5338,4.5335,4.5316,4.5331,4.5332,4.5328,4.5329,4.5324,4.5324,4.5326,4.5309,4.5306,4.5296,4.5315,4.5266,4.5264,4.5263,4.5249,4.5246,4.5243,0,0,0,0,0,4.535,4.5334,4.5339,4.5336,4.5326,4.5315,4.5314,4.5318,4.5327,4.5319,4.5318,4.5324,4.5299,4.5308,4.5304,4.5293,4.5266,4.5265,4.5263,4.525,4.5246,4.5243,0,0,0,0,0,0,4.5332,4.5333,4.5339,4.5322,4.5319,4.5318,4.5308,4.5314,4.5307,4.5308,4.5312,4.5311,4.5295,4.5292,4.5302,4.5273,4.5284,4.5282,4.5275,4.5271,4.5269,4.5269,4.5314,0,0,0,0,0,4.5326,4.5319,4.532,4.5304,4.5303,4.5306,4.5301,4.5305,4.5301,4.5299,4.5297,4.5292,4.5284,4.5277,4.5269,4.5249,4.5248,4.5239,4.5236,4.5234,4.5232,4.5222,4.5219,4.5257,4.5257,4.5257,0,0,4.5313,4.5313,4.5308,4.5301,4.5299,4.529,4.5304,4.5294,4.5287,4.5297,4.5283,4.5281,4.5276,4.5258,4.525,4.5256,4.5222,4.5232,4.523,4.5229,4.522,4.5216,4.5213,4.5256,4.5256,4.5256,0,0,4.5286,4.5285,4.5273,4.5272,4.5269,4.5271,4.5269,4.5267,4.5267,4.5253,4.5261,4.5253,4.5237,4.5233,4.5229,4.5203,4.5208,4.52,4.5185,4.5176,4.5173,4.517,4.5161,4.5158,4.5198,4.5198,4.5198,0,4.527,4.5259,4.5266,4.5256,4.5252,4.5263,4.5251,4.5248,4.5242,4.5239,4.5246,4.5228,4.5225,4.5207,4.5201,4.5197,4.5194,4.52,4.5173,4.517,4.5168,4.5159,4.5156,4.5197,4.5197,4.5197,4.5197,0,4.524,4.5232,4.5222,4.5219,4.5214,4.5202,4.5207,4.5202,4.5206,4.5208,4.5194,4.5191,4.5183,4.5179,4.5182,4.5162,4.5165,4.5172,4.5184,4.5163,4.5155,4.5152,4.5195,4.5196,4.5196,4.5196,0,0,4.5199,4.5202,4.5198,4.5197,4.5196,4.5189,4.5179,4.5173,4.5168,4.5164,4.5155,4.5142,4.515,4.5145,4.5148,4.514,4.512,4.5148,4.5148,4.5143,4.5098,4.5093,4.5089,4.5124,4.5123,4.5123,4.5099,0,4.5173,4.5156,4.5163,4.5145,4.5138,4.5149,4.5139,4.5137,4.5139,4.5132,4.5133,4.5125,4.5134,4.5132,4.5124,4.5124,4.5111,4.5126,4.5115,4.5115,4.5116,4.5085,4.5079,4.5057,4.5096,4.5095,4.5095,0,4.514,4.5137,4.5119,4.5121,4.5118,4.5109,4.5105,4.5099,4.5097,4.5098,4.5095,4.51,4.5089,4.5101,4.5086,4.5096,4.5092,4.5092,4.5091,4.509,4.5103,4.5083,4.505,4.5046,4.509,4.509,4.5091,0,4.5113,4.5104,4.5093,4.5091,4.5093,4.5087,4.5087,4.5086,4.5082,4.5078,4.5076,4.507,4.5067,4.5062,4.5065,4.5074,4.505,4.5062,4.5051,4.5051,4.5045,4.5045,4.501,4.5042,4.5042,4.5042,4.5042,0,4.5083,4.5071,4.5081,4.5074,4.5062,4.5069,4.5057,4.5058,4.5057,4.505,4.5058,4.5051,4.5057,4.505,4.5053,4.504,4.5038,4.5039,4.504,4.5038,4.5038,4.5036,4.5037,4.5041,4.5042,4.5042,4.5042,0,4.505,4.5056,4.5045,4.5048,4.5049,4.5039,4.5042,4.5035,4.5038,4.5029,4.5027,4.5031,4.5024,4.5027,4.5019,4.5021,4.5005,4.5008,4.5006,4.5007,4.4996,4.4997,4.4958,4.4953,4.4988,4.4988,4.4987,0,4.5031,4.5023,4.5026,4.5023,4.5023,4.5017,4.5014,4.5021,4.5018,4.5016,4.501,4.5004,4.4999,4.4987,4.4988,4.4982,4.4985,4.4972,4.4984,4.4983,4.4985,4.4986,4.4986,4.4969,4.4969,4.4968,4.4968,0,4.4996,4.4999,4.4996,4.4993,4.499,4.4988,4.4986,4.4983,4.4991,4.4986,4.498,4.4977,4.497,4.4963,4.4959,4.4958,4.4964,4.4965,4.4962,4.496,4.496,4.496,4.5,4.4965,4.4965,4.4966,4.4966,4.4966,4.4969,4.4963,4.4965,4.4961,4.4961,4.496,4.4954,4.4957,4.4953,4.4949,4.4953,4.4946,4.4945,4.494,4.4938,4.4932,4.4937,4.4933,4.4932,4.4931,4.493,4.4961,4.4931,4.4931,4.4931,4.4931,4.4931,0,4.4935,4.4937,4.4933,4.4932,4.4929,4.4937,4.4936,4.4933,4.4927,4.4926,4.4923,4.4916,4.491,4.4912,4.4907,4.4902,4.4905,4.4901,4.4901,4.4901,4.4925,4.4928,4.4899,4.4899,4.4899,4.4899,4.4899,4.4899,4.4917,4.4907,4.4912,4.4902,4.4904,4.4899,4.4898,4.4897,4.4897,4.4889,4.4885,4.4887,4.4888,4.4883,4.4879,4.4879,4.4877,4.4872,4.4874,4.4896,4.4899,4.4902,4.4905,4.4871,4.4871,4.485,4.485,4.485]}]]